This is the latest recevied weather packets stored in our database for station/object KG5APU. If no packets are shown the sender has not sent any weather packets the latest 10 day(s).
| Time | Temp. | Humidity | Pressure | Rain* | Wind** | Luminosity | Snow |
|---|---|---|---|---|---|---|---|
| 1788540381 | 32.22° C | 65% | 1016 hPa | 0 mm | - | 684 W/m² | - |
| 1788539779 | 32.22° C | 67% | 1015.6 hPa | 0 mm | - | 665 W/m² | - |
| 1788539173 | 31.67° C | 69% | 1016 hPa | 0 mm | - | 636 W/m² | - |
| 1788538570 | 31.67° C | 70% | 1016 hPa | 0 mm | - | 613 W/m² | - |
| 1788537966 | 31.67° C | 71% | 1016.1 hPa | 0 mm | - | 573 W/m² | - |
| 1788537361 | 31.11° C | 72% | 1015.8 hPa | 0 mm | - | 562 W/m² | - |
| 1788536761 | 31.11° C | 72% | 1015.9 hPa | 0 mm | - | 527 W/m² | - |
| 1788536161 | 31.11° C | 73% | 1015.9 hPa | 0 mm | - | 510 W/m² | - |
| 1788535560 | 30.56° C | 74% | 1015.8 hPa | 0 mm | - | 494 W/m² | - |
| 1788534955 | 30.56° C | 75% | 1015.8 hPa | 0 mm | - | 478 W/m² | - |
| 1788534355 | 30° C | 77% | 1015.8 hPa | 0 mm | - | 417 W/m² | - |
| 1788533755 | 29.44° C | 79% | 1015.8 hPa | 0 mm | - | 452 W/m² | - |
| 1788533152 | 29.44° C | 80% | 1015.7 hPa | 0 mm | - | 251 W/m² | - |
| 1788532549 | 28.89° C | 81% | 1015.7 hPa | 0 mm | - | 364 W/m² | - |
| 1788531948 | 28.89° C | 83% | 1015.8 hPa | 0 mm | - | 163 W/m² | - |
| 1788531344 | 28.33° C | 84% | 1015.7 hPa | 0 mm | - | 145 W/m² | - |
| 1788530739 | 28.33° C | 84% | 1015.8 hPa | 0 mm | - | 116 W/m² | - |
| 1788530139 | 27.78° C | 85% | 1015.6 hPa | 0 mm | - | 127 W/m² | - |
| 1788529536 | 27.22° C | 87% | 1015.6 hPa | 0 mm | - | 137 W/m² | - |
| 1788528937 | 26.67° C | 88% | 1015.5 hPa | 0 mm | - | 96 W/m² | - |
| 1788528333 | 26.67° C | 89% | 1015.4 hPa | 0 mm | - | 108 W/m² | - |
| 1788527753 | 26.11° C | 90% | 1015.1 hPa | 0 mm | - | 89 W/m² | - |
| 1788527128 | 26.11° C | 91% | 1015.3 hPa | 0 mm | - | 69 W/m² | - |
| 1788526525 | 25.56° C | 92% | 1015.2 hPa | 0 mm | - | 54 W/m² | - |
| 1788525921 | 25° C | 92% | 1015 hPa | 0 mm | - | 40 W/m² | - |
* Rain latest hour (hover to see other rain measurements)
** Current wind speed in m/s (hover to see current wind gust speed)